When you browse on this site, cookies collect data to enhance your experience and personalize the content and advertising you see.
Visit our Privacy Policy to learn more. By continuing to use the site, you agree to this use of cookies and data.
  • Em Portugal
  • Lista de países
  • Para 7 dias
  • Temperatura da água
  • Mapas de satélite
  • Mapa do tempo
  • Widgets de tempo
  • user-avatar
    Iniciar Sessão

    Previsão horária em Barancevo

    Hoje, 21 Fevereiro, Quinta-feira

    Tempo Temperatura Precipitação Vento Pressão Humidade
    00:00 -6°C° 0.1 mm 6 m/s 736 mmHg 76%
    01:00 -8°C° 0.1 mm 7 m/s 737 mmHg 74%
    02:00 -7°C° 0 mm 5 m/s 737 mmHg 74%
    03:00 -8°C° 0.1 mm 6 m/s 738 mmHg 74%
    04:00 -9°C° 0.1 mm 6 m/s 738 mmHg 73%
    05:00 -9°C° 0.1 mm 7 m/s 739 mmHg 73%
    06:00 -9°C° 0.1 mm 7 m/s 739 mmHg 71%
    07:00 -11°C° 0.1 mm 7 m/s 740 mmHg 70%
    08:00 -11°C° 0 mm 7 m/s 741 mmHg 68%
    09:00 -10°C° 0 mm 6 m/s 742 mmHg 67%
    10:00 -10°C° 0 mm 6 m/s 743 mmHg 65%
    11:00 -10°C° 0 mm 6 m/s 743 mmHg 64%
    12:00 -10°C° 0 mm 6 m/s 744 mmHg 63%
    13:00 -10°C° 0 mm 6 m/s 744 mmHg 63%
    14:00 -8°C° 0 mm 5 m/s 745 mmHg 63%
    15:00 -8°C° 0 mm 5 m/s 745 mmHg 64%
    16:00 -10°C° 0 mm 5 m/s 746 mmHg 65%
    17:00 -10°C° 0 mm 5 m/s 747 mmHg 66%
    18:00 -10°C° 0 mm 5 m/s 747 mmHg 67%
    19:00 -11°C° 0 mm 5 m/s 748 mmHg 69%
    20:00 -11°C° 0 mm 5 m/s 749 mmHg 70%
    21:00 -11°C° 0 mm 5 m/s 749 mmHg 70%
    22:00 -11°C° 0 mm 5 m/s 750 mmHg 70%
    23:00 -11°C° 0 mm 5 m/s 750 mmHg 70%

    Amanhã, 22 Fevereiro, Sexta-feira

    Tempo Temperatura Precipitação Vento Pressão Humidade
    00:00 -12°C° 0 mm 5 m/s 751 mmHg 71%
    01:00 -12°C° 0 mm 5 m/s 751 mmHg 72%
    02:00 -12°C° 0 mm 5 m/s 752 mmHg 73%
    03:00 -12°C° 0 mm 6 m/s 752 mmHg 73%
    04:00 -12°C° 0 mm 6 m/s 753 mmHg 73%
    05:00 -12°C° 0 mm 6 m/s 753 mmHg 73%
    06:00 -12°C° 0 mm 6 m/s 754 mmHg 72%
    07:00 -12°C° 0 mm 6 m/s 754 mmHg 72%
    08:00 -11°C° 0 mm 6 m/s 755 mmHg 72%
    09:00 -12°C° 0 mm 7 m/s 756 mmHg 69%
    10:00 -11°C° 0 mm 7 m/s 756 mmHg 67%
    11:00 -11°C° 0 mm 7 m/s 757 mmHg 64%
    12:00 -9°C° 0 mm 7 m/s 757 mmHg 63%
    13:00 -9°C° 0 mm 7 m/s 758 mmHg 62%
    14:00 -8°C° 0 mm 7 m/s 758 mmHg 60%
    15:00 -9°C° 0 mm 6 m/s 758 mmHg 63%
    16:00 -8°C° 0 mm 5 m/s 759 mmHg 66%
    17:00 -8°C° 0 mm 5 m/s 759 mmHg 69%
    18:00 -10°C° 0 mm 5 m/s 760 mmHg 72%
    19:00 -9°C° 0 mm 4 m/s 761 mmHg 75%
    20:00 -10°C° 0 mm 4 m/s 761 mmHg 78%
    21:00 -9°C° 0 mm 3 m/s 762 mmHg 80%
    22:00 -10°C° 0 mm 3 m/s 762 mmHg 81%
    23:00 -10°C° 0 mm 3 m/s 762 mmHg 82%

    Depois de amanhã, 23 Fevereiro, Sábado

    Tempo Temperatura Precipitação Vento Pressão Humidade
    00:00 -10°C° 0 mm 2 m/s 762 mmHg 83%
    01:00 -10°C° 0 mm 2 m/s 763 mmHg 84%
    02:00 -12°C° 0 mm 2 m/s 763 mmHg 85%
    03:00 -10°C° 0 mm 1 m/s 763 mmHg 83%
    04:00 -10°C° 0 mm 1 m/s 763 mmHg 81%
    05:00 -10°C° 0 mm 1 m/s 763 mmHg 79%
    06:00 -10°C° 0 mm 2 m/s 763 mmHg 74%
    07:00 -9°C° 0 mm 2 m/s 762 mmHg 69%
    08:00 -9°C° 0 mm 3 m/s 762 mmHg 63%
    09:00 -8°C° 0 mm 3 m/s 762 mmHg 60%
    10:00 -8°C° 0 mm 4 m/s 761 mmHg 57%
    11:00 -8°C° 0 mm 4 m/s 761 mmHg 54%
    12:00 -8°C° 0.2 mm 4 m/s 760 mmHg 63%
    13:00 -8°C° 0.2 mm 5 m/s 759 mmHg 72%
    14:00 -8°C° 0.2 mm 5 m/s 759 mmHg 82%
    15:00 -7°C° 0.7 mm 5 m/s 758 mmHg 83%
    16:00 -7°C° 0.7 mm 5 m/s 758 mmHg 85%
    17:00 -7°C° 0.7 mm 5 m/s 757 mmHg 86%
    18:00 -6°C° 0.1 mm 5 m/s 757 mmHg 87%
    19:00 -6°C° 0.1 mm 5 m/s 756 mmHg 87%
    20:00 -5°C° 0.1 mm 5 m/s 756 mmHg 87%
    21:00 -5°C° 0 mm 5 m/s 756 mmHg 88%
    22:00 -4°C° 0 mm 5 m/s 756 mmHg 89%
    23:00 -3°C° 0 mm 4 m/s 755 mmHg 90%

    24 Fevereiro, Domingo

    Tempo Temperatura Precipitação Vento Pressão Humidade
    00:00 -3°C° 0 mm 4 m/s 755 mmHg 91%
    01:00 -2°C° 0 mm 4 m/s 755 mmHg 91%
    02:00 -2°C° 0 mm 4 m/s 755 mmHg 91%
    03:00 -2°C° 0 mm 4 m/s 754 mmHg 92%
    04:00 -2°C° 0 mm 4 m/s 754 mmHg 92%
    05:00 -1°C° 0 mm 3 m/s 754 mmHg 92%
    06:00 -1°C° 0 mm 3 m/s 754 mmHg 93%
    07:00 -1°C° 0 mm 3 m/s 755 mmHg 94%
    08:00 -1°C° 0 mm 2 m/s 755 mmHg 95%
    09:00 0°C° 0 mm 3 m/s 755 mmHg 94%
    10:00 0°C° 0 mm 3 m/s 755 mmHg 94%
    11:00 0°C° 0 mm 3 m/s 755 mmHg 94%
    12:00 +1°C° 0 mm 3 m/s 755 mmHg 93%
    13:00 +1°C° 0 mm 3 m/s 754 mmHg 93%
    14:00 +2°C° 0 mm 3 m/s 754 mmHg 92%
    15:00 +1°C° 0 mm 3 m/s 754 mmHg 94%
    16:00 +1°C° 0 mm 3 m/s 754 mmHg 95%
    17:00 +2°C° 0 mm 2 m/s 754 mmHg 96%
    18:00 +1°C° 0 mm 3 m/s 753 mmHg 95%
    19:00 +1°C° 0 mm 3 m/s 753 mmHg 95%
    20:00 0°C° 0 mm 4 m/s 753 mmHg 95%
    21:00 0°C° 0 mm 4 m/s 753 mmHg 94%
    22:00 0°C° 0 mm 4 m/s 753 mmHg 93%
    23:00 0°C° 0 mm 4 m/s 752 mmHg 92%

    25 Fevereiro, Segunda-feira

    Tempo Temperatura Precipitação Vento Pressão Humidade
    00:00 0°C° 0 mm 4 m/s 752 mmHg 93%
    01:00 0°C° 0 mm 4 m/s 752 mmHg 93%
    02:00 0°C° 0 mm 4 m/s 752 mmHg 93%
    03:00 -1°C° 0 mm 4 m/s 752 mmHg 93%
    04:00 -1°C° 0 mm 4 m/s 752 mmHg 93%
    05:00 -1°C° 0 mm 5 m/s 752 mmHg 94%
    06:00 -1°C° 0 mm 5 m/s 752 mmHg 92%
    07:00 -1°C° 0 mm 4 m/s 753 mmHg 90%
    08:00 -1°C° 0 mm 4 m/s 753 mmHg 89%
    09:00 -1°C° 0 mm 4 m/s 753 mmHg 86%
    10:00 0°C° 0 mm 5 m/s 753 mmHg 83%
    11:00 0°C° 0 mm 5 m/s 753 mmHg 81%
    12:00 +1°C° 0 mm 5 m/s 752 mmHg 77%
    13:00 +1°C° 0 mm 5 m/s 752 mmHg 74%
    14:00 +2°C° 0 mm 6 m/s 752 mmHg 70%
    15:00 +1°C° 0 mm 5 m/s 751 mmHg 73%
    16:00 +1°C° 0 mm 5 m/s 751 mmHg 75%
    17:00 0°C° 0 mm 5 m/s 750 mmHg 78%
    18:00 0°C° 0 mm 5 m/s 750 mmHg 80%
    19:00 +1°C° 0 mm 5 m/s 750 mmHg 83%
    20:00 +1°C° 0 mm 5 m/s 750 mmHg 85%
    21:00 0°C° 0 mm 5 m/s 749 mmHg 86%
    22:00 0°C° 0 mm 5 m/s 749 mmHg 87%
    23:00 0°C° 0 mm 4 m/s 749 mmHg 88%

    26 Fevereiro, Terça-feira

    Tempo Temperatura Precipitação Vento Pressão Humidade
    00:00 0°C° 0 mm 4 m/s 748 mmHg 89%
    01:00 -1°C° 0 mm 4 m/s 748 mmHg 90%
    02:00 -1°C° 0 mm 4 m/s 748 mmHg 91%
    03:00 -1°C° 0 mm 4 m/s 748 mmHg 91%
    04:00 -1°C° 0 mm 3 m/s 748 mmHg 92%
    05:00 -1°C° 0 mm 3 m/s 748 mmHg 92%
    06:00 -1°C° 0 mm 3 m/s 747 mmHg 92%
    07:00 -1°C° 0 mm 3 m/s 747 mmHg 91%
    08:00 -1°C° 0 mm 3 m/s 747 mmHg 91%
    09:00 -1°C° 0 mm 3 m/s 746 mmHg 90%
    10:00 -1°C° 0 mm 3 m/s 745 mmHg 90%
    11:00 0°C° 0 mm 3 m/s 744 mmHg 90%
    12:00 -1°C° 0.5 mm 4 m/s 744 mmHg 89%
    13:00 0°C° 0.5 mm 5 m/s 743 mmHg 89%
    14:00 +1°C° 0.5 mm 5 m/s 742 mmHg 89%
    15:00 -1°C° 0.1 mm 6 m/s 742 mmHg 86%
    16:00 -1°C° 0.1 mm 6 m/s 742 mmHg 84%
    17:00 -1°C° 0.1 mm 6 m/s 742 mmHg 82%
    18:00 -1°C° 0 mm 6 m/s 742 mmHg 81%
    19:00 -1°C° 0 mm 6 m/s 743 mmHg 80%
    20:00 -2°C° 0 mm 6 m/s 743 mmHg 79%
    21:00 -1°C° 0 mm 5 m/s 744 mmHg 80%
    22:00 -1°C° 0 mm 5 m/s 744 mmHg 82%
    23:00 -2°C° 0 mm 5 m/s 745 mmHg 83%
    Mostrar mais